When you browse on this site, cookies collect data to enhance your experience and personalize the content and advertising you see.
Visit our Privacy Policy to learn more. By continuing to use the site, you agree to this use of cookies and data.
  • In Germany
  • List of Countries
  • For 7 days
  • Water Temperature
  • Weather Map
  • Weather Widgets
  • user-avatar
    Login

    Hourly Weather Yulara

    Today, 23 August, Friday

    Time Temperature Precipitation Wind Pressure Humidity
    00:00 +10°C° 0 mm 3 mps 722 mmHg 37%
    01:00 +9°C° 0 mm 3 mps 722 mmHg 42%
    02:00 +7°C° 0 mm 3 mps 721 mmHg 46%
    03:00 +6°C° 0 mm 2 mps 721 mmHg 49%
    04:00 +5°C° 0 mm 3 mps 721 mmHg 50%
    05:00 +5°C° 0 mm 3 mps 721 mmHg 50%
    06:00 +5°C° 0 mm 3 mps 722 mmHg 50%
    07:00 +9°C° 0 mm 3 mps 722 mmHg 43%
    08:00 +12°C° 0 mm 3 mps 722 mmHg 36%
    09:00 +16°C° 0 mm 3 mps 723 mmHg 29%
    10:00 +18°C° 0 mm 3 mps 722 mmHg 24%
    11:00 +20°C° 0 mm 3 mps 722 mmHg 20%
    12:00 +24°C° 0 mm 3 mps 721 mmHg 15%
    13:00 +24°C° 0 mm 3 mps 721 mmHg 14%
    14:00 +25°C° 0 mm 3 mps 720 mmHg 12%
    15:00 +26°C° 0 mm 4 mps 720 mmHg 10%
    16:00 +22°C° 0 mm 3 mps 719 mmHg 17%
    17:00 +19°C° 0 mm 3 mps 719 mmHg 25%
    18:00 +16°C° 0 mm 2 mps 719 mmHg 32%
    19:00 +14°C° 0 mm 2 mps 719 mmHg 37%
    20:00 +13°C° 0 mm 1 mps 719 mmHg 42%
    21:00 +11°C° 0 mm 1 mps 719 mmHg 48%
    22:00 +11°C° 0 mm 1 mps 719 mmHg 47%
    23:00 +11°C° 0 mm 1 mps 719 mmHg 46%

    Tomorrow, 24 August, Saturday

    Time Temperature Precipitation Wind Pressure Humidity
    00:00 +10°C° 0 mm 1 mps 719 mmHg 45%
    01:00 +10°C° 0 mm 1 mps 719 mmHg 42%
    02:00 +8°C° 0 mm 2 mps 719 mmHg 40%
    03:00 +8°C° 0 mm 2 mps 718 mmHg 38%
    04:00 +8°C° 0 mm 1 mps 718 mmHg 43%
    05:00 +7°C° 0 mm 1 mps 718 mmHg 49%
    06:00 +5°C° 0 mm 0 mps 718 mmHg 54%
    07:00 +10°C° 0 mm 1 mps 719 mmHg 40%
    08:00 +15°C° 0 mm 1 mps 720 mmHg 27%
    09:00 +19°C° 0 mm 2 mps 720 mmHg 13%
    10:00 +22°C° 0 mm 1 mps 720 mmHg 11%
    11:00 +24°C° 0 mm 1 mps 720 mmHg 9%
    12:00 +26°C° 0 mm 1 mps 720 mmHg 8%
    13:00 +27°C° 0 mm 1 mps 719 mmHg 8%
    14:00 +27°C° 0 mm 1 mps 719 mmHg 8%
    15:00 +28°C° 0 mm 1 mps 718 mmHg 8%
    16:00 +24°C° 0 mm 1 mps 718 mmHg 20%
    17:00 +21°C° 0 mm 1 mps 718 mmHg 32%
    18:00 +18°C° 0 mm 1 mps 718 mmHg 44%
    19:00 +16°C° 0 mm 3 mps 719 mmHg 41%
    20:00 +15°C° 0 mm 4 mps 719 mmHg 37%
    21:00 +15°C° 0 mm 6 mps 720 mmHg 34%
    22:00 +14°C° 0 mm 6 mps 720 mmHg 40%
    23:00 +13°C° 0 mm 5 mps 720 mmHg 46%

    Day after tomorrow, 25 August, Sunday

    Time Temperature Precipitation Wind Pressure Humidity
    00:00 +12°C° 0 mm 5 mps 721 mmHg 51%
    01:00 +10°C° 0 mm 5 mps 720 mmHg 60%
    02:00 +9°C° 0 mm 5 mps 720 mmHg 69%
    03:00 +8°C° 0 mm 5 mps 720 mmHg 78%
    04:00 +7°C° 0 mm 5 mps 720 mmHg 81%
    05:00 +6°C° 0 mm 4 mps 721 mmHg 85%
    06:00 +6°C° 0 mm 4 mps 721 mmHg 88%
    07:00 +8°C° 0 mm 5 mps 721 mmHg 78%
    08:00 +10°C° 0 mm 6 mps 722 mmHg 69%
    09:00 +13°C° 0 mm 6 mps 722 mmHg 59%
    10:00 +15°C° 0 mm 7 mps 722 mmHg 51%
    11:00 +18°C° 0 mm 7 mps 722 mmHg 42%
    12:00 +21°C° 0 mm 7 mps 721 mmHg 34%
    13:00 +22°C° 0 mm 6 mps 721 mmHg 31%
    14:00 +23°C° 0 mm 5 mps 720 mmHg 28%
    15:00 +25°C° 0 mm 5 mps 719 mmHg 24%
    16:00 +22°C° 0 mm 4 mps 719 mmHg 27%
    17:00 +20°C° 0 mm 4 mps 720 mmHg 30%
    18:00 +19°C° 0 mm 3 mps 720 mmHg 32%
    19:00 +17°C° 0 mm 4 mps 720 mmHg 35%
    20:00 +15°C° 0 mm 4 mps 720 mmHg 38%
    21:00 +14°C° 0 mm 5 mps 721 mmHg 41%
    22:00 +13°C° 0 mm 5 mps 721 mmHg 45%
    23:00 +12°C° 0 mm 5 mps 721 mmHg 48%

    26 August, Monday

    Time Temperature Precipitation Wind Pressure Humidity
    00:00 +10°C° 0 mm 5 mps 721 mmHg 52%
    01:00 +9°C° 0 mm 5 mps 721 mmHg 52%
    02:00 +9°C° 0 mm 5 mps 720 mmHg 52%
    03:00 +8°C° 0 mm 6 mps 720 mmHg 52%
    04:00 +7°C° 0 mm 5 mps 721 mmHg 50%
    05:00 +7°C° 0 mm 5 mps 721 mmHg 49%
    06:00 +6°C° 0 mm 5 mps 721 mmHg 47%
    07:00 +8°C° 0 mm 6 mps 722 mmHg 42%
    08:00 +10°C° 0 mm 7 mps 722 mmHg 37%
    09:00 +12°C° 0 mm 8 mps 722 mmHg 31%
    10:00 +16°C° 0 mm 8 mps 722 mmHg 29%
    11:00 +18°C° 0 mm 7 mps 722 mmHg 26%
    12:00 +21°C° 0 mm 7 mps 722 mmHg 23%
    13:00 +22°C° 0 mm 6 mps 721 mmHg 22%
    14:00 +23°C° 0 mm 5 mps 720 mmHg 21%
    15:00 +25°C° 0 mm 4 mps 720 mmHg 20%
    16:00 +23°C° 0 mm 4 mps 720 mmHg 22%
    17:00 +21°C° 0 mm 4 mps 720 mmHg 25%
    18:00 +19°C° 0 mm 4 mps 720 mmHg 27%
    19:00 +17°C° 0 mm 5 mps 721 mmHg 30%
    20:00 +16°C° 0 mm 5 mps 721 mmHg 33%
    21:00 +14°C° 0 mm 5 mps 721 mmHg 35%
    22:00 +13°C° 0 mm 5 mps 722 mmHg 38%
    23:00 +12°C° 0 mm 5 mps 722 mmHg 41%

    27 August, Tuesday

    Time Temperature Precipitation Wind Pressure Humidity
    00:00 +10°C° 0 mm 6 mps 722 mmHg 44%
    01:00 +9°C° 0 mm 6 mps 722 mmHg 45%
    02:00 +9°C° 0 mm 6 mps 722 mmHg 45%
    03:00 +8°C° 0 mm 6 mps 722 mmHg 46%
    04:00 +7°C° 0 mm 5 mps 722 mmHg 46%
    05:00 +7°C° 0 mm 5 mps 722 mmHg 46%
    06:00 +6°C° 0 mm 5 mps 723 mmHg 47%
    07:00 +8°C° 0 mm 5 mps 723 mmHg 42%
    08:00 +11°C° 0 mm 6 mps 723 mmHg 38%
    09:00 +14°C° 0 mm 7 mps 724 mmHg 33%
    10:00 +16°C° 0 mm 6 mps 723 mmHg 30%
    11:00 +19°C° 0 mm 6 mps 723 mmHg 26%
    12:00 +22°C° 0 mm 6 mps 723 mmHg 23%
    13:00 +23°C° 0 mm 5 mps 722 mmHg 22%
    14:00 +23°C° 0 mm 4 mps 722 mmHg 21%
    15:00 +25°C° 0 mm 3 mps 721 mmHg 20%
    16:00 +23°C° 0 mm 4 mps 721 mmHg 22%
    17:00 +21°C° 0 mm 4 mps 721 mmHg 24%
    18:00 +20°C° 0 mm 4 mps 721 mmHg 27%
    19:00 +18°C° 0 mm 4 mps 722 mmHg 30%
    20:00 +17°C° 0 mm 4 mps 722 mmHg 32%
    21:00 +14°C° 0 mm 5 mps 723 mmHg 35%
    22:00 +13°C° 0 mm 5 mps 723 mmHg 38%
    23:00 +12°C° 0 mm 5 mps 723 mmHg 41%

    28 August, Wednesday

    Time Temperature Precipitation Wind Pressure Humidity
    00:00 +10°C° 0 mm 5 mps 723 mmHg 43%
    01:00 +9°C° 0 mm 5 mps 723 mmHg 43%
    02:00 +8°C° 0 mm 5 mps 723 mmHg 43%
    03:00 +7°C° 0 mm 5 mps 723 mmHg 43%
    04:00 +6°C° 0 mm 4 mps 723 mmHg 42%
    05:00 +6°C° 0 mm 4 mps 723 mmHg 41%
    06:00 +5°C° 0 mm 4 mps 723 mmHg 40%
    07:00 +8°C° 0 mm 5 mps 724 mmHg 36%
    08:00 +10°C° 0 mm 6 mps 724 mmHg 31%
    09:00 +12°C° 0 mm 7 mps 724 mmHg 27%
    10:00 +16°C° 0 mm 6 mps 724 mmHg 25%
    11:00 +19°C° 0 mm 5 mps 724 mmHg 23%
    12:00 +21°C° 0 mm 5 mps 723 mmHg 20%
    13:00 +22°C° 0 mm 4 mps 723 mmHg 19%
    14:00 +24°C° 0 mm 3 mps 722 mmHg 18%
    15:00 +25°C° 0 mm 2 mps 721 mmHg 17%
    16:00 +23°C° 0 mm 2 mps 721 mmHg 19%
    17:00 +20°C° 0 mm 3 mps 721 mmHg 22%
    18:00 +18°C° 0 mm 3 mps 721 mmHg 25%
    19:00 +17°C° 0 mm 3 mps 722 mmHg 25%
    20:00 +16°C° 0 mm 3 mps 722 mmHg 26%
    21:00 +13°C° 0 mm 3 mps 723 mmHg 26%
    22:00 +12°C° 0 mm 3 mps 723 mmHg 25%
    23:00 +11°C° 0 mm 3 mps 722 mmHg 25%
    Show more